THOR ABLESTAR DEB, 261

Orbit data source: Space-Track

THOR ABLESTAR DEB, 261 is space debris in LEO originally from a launch on Thu, 29 Jun 1961 UTC launched from the Air Force Eastern Test Range (AFETR). Debris objects in space refer to the collection of defunct objects orbiting the Earth. Examples of debris include non-operational satellites, rocket bodies, and fragments generated from explosions, collisions, or faulty payload assembly.

Loading next visibility...
Identifier
261, 1961-015CH
Orbit
LEO
Country
Flag of USUS
Related business
Manufacturer
Unknown
Mission
Spacecraft
Bus & Motor
Unknown
Mass
Unknown
Launch date (UTC)
1961-06-29 (65 years ago)
Launch vehicle
Unknown
Launch site
Air Force Eastern Test Range (AFETR)
Object type
Payload
Rocket body
Debris
Shape & HBR
Unknown shape, 0.1 m
Radar Cross Section
Medium (>0.1 m² and <1 m²)

Expand to show TLE details & history
Last TLE update: 12 hours ago

TLE from 12 hours ago
0 THOR ABLESTAR DEB
1 00261U 61015CH  26227.47162525  .00000031  00000-0  71133-4 0  9996
2 00261  66.6796 264.4017 0094734 291.7660  67.3362 14.01063853320398
Epoch: 2026-08-15T11:19Z
TLE epoch observation values (Epoch: 2026-08-15T11:19:08.421Z)
Latitude
-0°
Longitude
130.73459°
Altitude
866.215 km
Speed
7.433 km/s
True Right ascension
17h 37m 36s
True Declination
0° 00' 00"
Sunlit
Object was in partial shadow at epoch
Visualization orbit readout
Latitude
Unknown
Longitude
Unknown
Altitude
Unknown
Speed
Unknown
Apparent Right ascension
Unknown
Apparent Declination
Unknown
Sunlit
N/A
Visualization observer readout
Local Sidereal Time
13:27:22
Azimuth
Unknown
Elevation
Unknown
Doppler factor
Unknown
Orbital elements
Apogee altitude
957.353 km
Perigee altitude
819.673 km
Semi-major axis
7,266.65 km
Eccentricity
0.00947
Inclination
66.6796°
RAAN
264.4017°
Arg. of periapsis
291.766°
True anomaly
68.34248°
Mean anomaly
67.3362°
Eccentric anomaly
67.83889°
Mean motion
3.50382 °/min
Orbital period
102.74 mins
BSTAR
0.000071133
Loading maneuver chart data...
Computing Atmospheric mass density...

Documentation

Showing up to 5 results
|